Location: Go�ngahuizen
(53.0821°N, 5.8849°E)
Time: 08:12:07
(UTC+00:00)

Daily predictions for brighter satellites

Satellite Brightness Start Highest point End
(mag) Time Altitude Azimuth Time Altitude Azimuth Time Altitude Azimuth
STARLINK-1202 3.7 18:56:00 10° W 19:00:09 77° SSW 19:04:17 10° ESE
Cosmos 2058 Rocket 3.7 18:56:50 10° SSE 19:00:56 35° E 19:05:03 10° NNE
Cosmos 1461 3.5 18:57:17 10° NW 19:01:45 65° SW 19:06:21 10° SSE
STARLINK-1228 4.1 18:59:32 10° W 19:02:13 32° SSW 19:04:53 10° SE
Cosmos 1726 Rocket 3.7 18:59:13 10° S 19:03:32 54° E 19:07:54 10° NNE
Cosmos 921 Rocket 3.0 18:59:56 10° NNW 19:04:06 64° ENE 19:08:17 10° SSE
SL-08 RB Rocket 3.8 18:59:37 10° SSE 19:04:09 65° ENE 19:08:46 10° N
Cosmos 1703 3.4 19:00:33 10° NNW 19:04:32 85° WSW 19:08:30 10° S
Cosmos 2341 Rocket 4.4 18:58:49 10° N 19:05:00 48° ENE 19:11:09 10° SE
Meteor 2-17 Rocket 4.5 18:58:50 10° N 19:05:01 74° ENE 19:11:10 10° SSE
Cosmos 1437 4.5 19:04:00 10° NNW 19:06:47 33° W 19:09:33 10° SSW
Cosmos 2184 Rocket 4.3 19:00:34 10° NNW 19:06:53 77° W 19:13:05 10° S
SL-4 R/B 2.0 19:03:47 10° SW 19:07:02 43° SSE 19:10:19 10° E
ADEOS Rocket 3.8 19:01:10 10° N 19:07:30 58° WNW 19:13:11 10° SW
Cosmos 1825 Rocket 4.1 19:03:28 10° NNW 19:07:51 64° W 19:12:09 10° S
Cosmos 1726 2.4 19:04:26 10° SSW 19:08:10 75° WNW 19:11:55 10° N
CZ-4C R/B 3.7 19:02:14 10° NW 19:08:13 39° NNE 19:15:15 10° E
STARLINK-1246 3.7 19:05:57 10° W 19:10:05 72° SSW 19:14:13 10° ESE
Meteor 2-10 4.3 19:04:39 10° SSW 19:10:13 85° WNW 19:15:59 10° NNE
RESURS DK-1 4.0 19:07:18 10° NNW 19:10:39 23° NE 19:13:59 10° E
Cosmos 1328 4.0 19:07:12 10° NNW 19:11:14 76° W 19:15:14 10° S
STARLINK-1201 3.8 19:08:13 10° W 19:11:19 42° SSW 19:14:26 10° SE
Cosmos 407 Rocket 3.6 19:06:36 10° S 19:11:34 53° ESE 19:16:33 10° NNE
Cosmos 1908 3.2 19:08:05 10° S 19:11:55 63° E 19:15:48 10° NNE
Cosmos 1340 Rocket 3.2 19:08:34 10° SSE 19:12:24 42° E 19:16:13 10° NNE
FREGAT/IRIS 2.9 19:10:11 10° S 19:12:52 59° WSW 19:15:35 10° NNW
Cosmos 2228 3.0 19:10:06 10° S 19:14:25 79° E 19:18:48 10° NNE
STARLINK-1224 3.7 19:10:57 10° W 19:15:05 70° SSW 19:19:04 11° ESE
STARLINK-1203 3.8 19:13:05 10° W 19:17:16 67° SSW 19:21:13 11° ESE
Cosmos 2058 4.1 19:14:31 10° N 19:17:58 25° ENE 19:21:10 11° ESE
Cosmos 1943 3.5 19:12:49 10° SW 19:18:30 77° WNW 19:24:15 10° NNE
STARLINK-1225 3.8 19:15:56 10° W 19:20:04 68° SSW 19:23:51 12° ESE
MetOp-A 4.2 19:15:48 10° SSE 19:21:07 71° ENE 19:26:29 10° NNW
MOS 1 Rocket 4.2 19:16:06 10° NNE 19:21:07 37° E 19:26:09 10° SSE
CZ-2C R/B 3.2 19:17:45 10° NNE 19:22:28 34° E 19:27:10 10° SSE
Resurs 01 Rocket 2.0 19:18:16 10° SE 19:22:28 45° ENE 19:26:43 10° N
STARLINK-52 4.2 19:20:59 10° SSW 19:23:38 24° SSE 19:25:57 12° E
STARLINK-1230 3.8 19:20:54 10° W 19:25:01 65° SSW 19:28:37 13° ESE
Cosmos 962 Rocket 4.5 19:19:50 10° N 19:26:00 68° ENE 19:32:05 10° SSE
Nadezhda 1 Rocket 4.0 19:20:29 10° S 19:26:52 79° E 19:33:13 10° NNE
BREEZE M DEB (TANK) 4.3 19:24:11 10° S 19:27:10 21° ESE 19:33:08 10° ENE
Cosmos 1697 Rocket 3.8 19:23:02 10° NNW 19:28:03 31° NE 19:32:44 11° E
SL-8 Rocket 4.3 19:22:23 10° N 19:28:34 51° ENE 19:34:42 10° SSE
Cosmos 2154 Rocket 4.2 19:23:31 10° NNW 19:29:54 79° W 19:36:13 10° S
STARLINK-1243 3.8 19:25:52 10° W 19:29:58 63° SSW 19:33:24 14° ESE
SPOT 3 Rocket 3.6 19:25:00 10° SSE 19:30:13 87° ENE 19:35:27 10° NNW
SL-24 R/B - RUBIN 2 4.4 19:25:12 10° SSW 19:30:52 64° SE 19:37:13 10° NE
Cosmos 1953 Rocket 4.4 19:26:30 10° NNW 19:30:54 56° W 19:35:18 10° S
ARGOS 3.7 19:26:26 10° S 19:31:46 61° WSW 19:37:06 10° NNW
FALCON 9 DEB 4.1 19:28:51 10° SSW 19:31:56 29° SSE 19:34:33 13° E
Cosmos 1606 Rocket 4.1 19:29:44 10° SSW 19:34:09 67° WNW 19:38:39 10° N
STARLINK-1236 3.9 19:30:51 10° W 19:34:56 60° SSW 19:38:11 16° SE
Cosmos 1954 Rocket 4.3 19:31:53 10° S 19:36:50 44° ESE 19:41:46 10° NE
Cosmos 2181 Rocket 4.4 19:31:27 10° SSE 19:37:13 42° E 19:42:57 10° NNE
USA 186 3.5 19:34:17 10° SSW 19:37:14 32° W 19:40:04 10° NNW
Cosmos 2366 rocket 4.2 19:36:43 10° N 19:42:43 51° ENE 19:48:12 12° SSE
Cosmos 1076 Rocket 4.0 19:39:07 10° N 19:43:13 42° ENE 19:46:20 16° SE
Cosmos 1818 4.0 19:39:17 10° SW 19:44:42 66° NW 19:50:09 10° NE
STARLINK-1269 4.0 19:40:49 10° W 19:44:52 55° SSW 19:47:44 18° SE
Cosmos 1656 4.0 19:41:34 10° NNW 19:47:10 54° NE 19:51:23 17° SE
Cosmos 1763 Rocket 3.8 19:42:39 10° NNW 19:47:46 52° ENE 19:51:28 18° SE
SL-16 R/B 4.3 19:45:15 10° NNW 19:48:50 17° NNE 19:52:25 10° ENE
STARLINK-1200 4.0 19:45:48 10° W 19:49:50 52° SSW 19:52:31 20° SE
Cosmos 540 Rocket 4.4 19:46:34 10° NNW 19:51:15 33° NE 19:54:31 17° ESE
SPOT 1/Viking Rocket 4.3 19:50:06 17° ESE 19:53:34 38° ENE 19:58:22 10° N
STARLINK-1192 4.1 19:50:46 10° W 19:54:48 50° SSW 19:57:18 21° SE
Cosmos 2322 Rocket 4.4 19:52:20 10° NNW 19:55:48 16° NNE 19:59:16 10° ENE
SeaSat 1 3.5 19:51:10 10° NNE 19:55:57 49° NW 20:00:41 10° WSW
Iridium 4 Rocket 3.5 19:52:46 10° N 19:56:46 40° E 19:59:06 21° SE
Cosmos 1455 3.8 19:56:32 17° E 19:56:46 17° E 19:59:20 10° NE
Cosmos 1980 Rocket 3.4 19:53:19 10° NNW 19:58:13 30° NE 20:02:02 15° E
USA 234 4.2 19:53:44 10° ENE 19:58:46 23° SE 20:03:47 10° S
Cosmos 1174 4.1 19:55:15 10° NW 19:59:14 82° SW 20:02:39 20° SE
STARLINK-1244 4.1 19:55:51 10° W 19:59:51 48° SSW 20:02:10 22° SE
Cosmos 1892 3.1 19:56:22 10° N 20:00:10 47° ENE 20:02:13 24° SE
Abrixas rocket 4.2 19:59:25 10° WSW 20:01:13 15° SSW 20:02:07 13° S
Cosmos 1825 3.5 20:01:30 10° NNE 20:04:38 24° ENE 20:05:39 21° E
STARLINK-1138 4.2 20:00:45 10° W 20:04:43 45° SSW 20:06:52 24° SSE
ATLAS 2AS CENTAUR R/B 4.3 19:58:22 10° NW 20:04:47 31° WSW 20:10:47 10° S
H-2A R/B 3.9 20:01:06 10° SSW 20:05:31 28° W 20:09:52 10° NW
ATLAS 5 CENTAUR R/B 1.5 20:01:44 10° SW 20:06:00 87° SE 20:10:56 10° NE
COSMOS 2455 3.8 20:02:33 10° NW 20:08:13 43° WSW 20:13:52 10° S
Cosmos-2242 4.2 20:08:41 23° ESE 20:09:29 24° E 20:12:59 10° NNE
STARLINK-1143 4.3 20:05:44 10° W 20:09:41 43° SSW 20:11:39 25° SSE
ERBS 3.1 20:09:51 10° WNW 20:13:04 41° SW 20:14:20 28° SSE
Cosmos 1140 Rocket 3.7 20:08:30 10° SSW 20:13:41 73° WNW 20:18:52 10° NNE
Cosmos 1356 Rocket 4.4 20:13:46 26° ESE 20:14:34 28° E 20:18:12 10° NNE
STARLINK-1241 4.4 20:10:46 10° W 20:14:40 41° SSW 20:16:28 26° SSE
STARLINK-29 3.0 20:15:59 10° WSW 20:19:07 52° SSE 20:19:45 43° ESE
Cosmos 2344 4.5 20:10:41 10° NW 20:19:13 61° NNE 20:28:34 17° ESE
STARLINK-1239 4.4 20:15:44 10° W 20:19:37 39° SSW 20:21:14 27° SSE
SAR-Lupe-2 3.6 20:16:07 10° NNE 20:19:38 54° ESE 20:21:14 29° SSE
ATLAS CENTAUR R/B 1.7 20:16:48 10° NW 20:20:41 48° NE 20:22:10 30° E
IGS 5A 3.6 20:20:27 30° SE 20:22:18 59° ENE 20:26:24 10° N
Cosmos 1821 Rocket 4.5 20:17:12 10° N 20:23:20 46° ENE 20:26:40 26° SE
Cosmos 1300 3.1 20:20:05 10° SSW 20:23:52 62° WNW 20:27:41 10° N
USA 32 4.3 20:18:45 10° N 20:23:52 51° ENE 20:26:23 28° SE
Spot 2 Rocket 3.5 20:22:14 21° SSE 20:25:42 88° ENE 20:30:51 10° NNW
STARLINK-60 2.8 20:23:36 10° WSW 20:26:52 78° S 20:27:47 44° E
Cosmos 841 Rocket 3.7 20:21:44 10° NNW 20:26:59 61° ENE 20:29:32 30° SE
In-Cosmos 22 Rocket 4.5 20:22:06 10° NNW 20:27:57 74° W 20:32:45 15° S
Cosmos 1850 Rocket 4.1 20:24:22 13° S 20:28:45 50° ESE 20:33:46 10° NE
Cosmos 2278 4.2 20:24:12 10° NNW 20:29:41 48° NE 20:32:29 27° ESE
Terra 2.6 20:29:53 28° ESE 20:31:32 36° ENE 20:35:53 10° N
SL-08 R/B 4.4 20:26:38 10° N 20:32:48 77° ENE 20:36:45 24° SSE
SPOT 5 3.1 20:31:40 33° ESE 20:33:02 44° ENE 20:37:10 10° N
Cosmos 2082 Rocket 3.7 20:34:09 18° E 20:34:09 18° E 20:36:52 10° ENE
STPSAT 2 (USA 217) 4.5 20:29:43 10° SSW 20:34:12 82° ESE 20:38:44 10° NNE
Meteor 2-10 Rocket 4.0 20:33:52 31° SE 20:35:50 43° E 20:41:00 10° NNE
MetOp-B 4.3 20:32:15 19° S 20:36:11 70° WSW 20:41:34 10° NNW
Cosmos 1833 Rocket 3.4 20:39:01 30° ESE 20:39:23 30° ESE 20:44:14 10° NE
Cosmos 468 Rocket 4.3 20:34:23 10° NNW 20:39:29 59° WSW 20:42:31 24° S
CARTOSAT-1 3.8 20:39:31 39° ESE 20:40:47 55° ENE 20:45:02 10° N
CZ-4B DEB 4.3 20:40:16 59° SE 20:40:47 75° ENE 20:44:11 10° N
Cosmos 1408 2.4 20:42:31 10° N 20:46:12 84° E 20:46:55 56° SSE
SL-4 R/B 1.4 20:42:58 10° W 20:46:23 70° S 20:46:33 69° SSE
ERS-1 Rocket 2.9 20:47:01 36° SSE 20:49:04 76° ENE 20:54:06 10° NNW
RESURS DK-1 2.4 20:44:58 10° NW 20:49:08 72° WSW 20:50:15 46° S
Cosmos 1766 Rocket 3.6 20:47:16 10° N 20:51:46 65° ENE 20:52:50 47° SE
Cosmos 1570 Rocket 4.1 20:46:50 10° NNW 20:52:13 79° WSW 20:54:32 35° SSE
Okean 3 Rocket 3.5 20:48:52 10° N 20:53:19 79° ENE 20:54:33 47° SSE
BREEZE M DEB (TANK) 3.2 20:48:01 10° WSW 20:53:25 43° S 20:53:25 43° S
Cosmos 2058 4.0 20:51:10 10° NNW 20:55:02 40° W 20:57:24 20° SSW
CZ-4C R/B 2.9 20:50:53 10° NW 20:57:44 78° NE 21:01:49 32° ESE
COSMOS 2406 3.2 20:54:52 18° S 20:59:01 63° ESE 21:04:42 10° NE
Resurs 01 Rocket 3.5 20:55:27 10° SSW 20:59:10 26° W 21:02:54 10° NW
STARLINK-52 3.9 20:56:15 10° WSW 20:58:27 40° WSW 20:58:27 40° WSW
CZ-2C R/B 3.7 20:58:00 10° N 21:02:54 44° WNW 21:07:50 10° SW
Cosmos 1812 Rocket 4.4 21:02:26 13° SSW 21:06:07 49° WNW 21:10:21 10° N
Cosmos 2151 3.1 21:02:20 10° NNW 21:06:32 71° W 21:07:34 48° SSW
FALCON 9 DEB 3.7 21:05:13 10° WSW 21:07:53 49° WSW 21:07:53 49° WSW
Cosmos 1697 Rocket 2.7 21:06:53 10° NW 21:12:34 73° WSW 21:14:29 43° S
Cosmos 2369 3.7 21:07:01 10° NW 21:12:41 74° WSW 21:14:34 43° SSE
Cosmos 1741 Rocket 4.3 21:21:27 10° SW 21:26:45 67° WNW 21:32:06 10° NNE
Cosmos 1408 Rocket 3.4 21:26:34 10° NNW 21:31:04 86° WSW 21:31:22 77° S
Cosmos 1455 2.9 21:31:25 45° WSW 21:32:01 50° WNW 21:35:48 10° N
SPOT 1/Viking Rocket 4.5 21:30:43 28° SSW 21:32:57 42° W 21:37:56 10° NNW
Cosmos 540 Rocket 4.0 21:28:05 10° NNW 21:33:06 51° WSW 21:34:20 41° SSW
Cosmos 1743 Rocket 3.8 21:29:20 10° N 21:33:44 59° ENE 21:33:44 59° ENE
SL-16 R/B 3.0 21:29:08 10° NNW 21:34:32 42° NE 21:36:11 34° E
Cosmos 2360 Rocket 3.8 21:30:11 10° NNW 21:34:53 26° NE 21:37:31 19° ENE
Thor Agena Rocket 4.3 21:32:19 10° NNE 21:36:20 35° E 21:36:20 35° E
Cosmos 1825 3.3 21:36:45 10° NNW 21:40:15 36° W 21:40:28 35° W
Cosmos 836 Rocket 4.5 21:35:44 10° NNW 21:41:00 70° ENE 21:41:41 62° ESE
Cosmos 2322 Rocket 3.1 21:36:09 10° NNW 21:41:29 40° NE 21:43:04 33° E
USA 234 3.1 21:36:11 10° ENE 21:42:42 63° SE 21:49:10 10° SW
Cosmos 1980 Rocket 2.1 21:37:10 10° NW 21:42:48 76° WSW 21:43:48 60° S
Nadezhda 3 Rocket 4.1 21:41:26 34° SSW 21:44:21 76° WNW 21:50:39 10° N
Cosmos 1535 Rocket 4.4 21:39:09 10° N 21:45:20 86° W 21:46:59 52° S
Cosmos 2221 3.4 21:46:37 39° NE 21:46:37 39° NE 21:49:50 10° NNE
Cosmos-2242 4.0 21:45:29 34° WSW 21:46:48 45° WNW 21:51:01 10° N
ASTEX 1 3.3 21:50:00 74° S 21:50:27 85° W 21:55:26 10° N
ATLAS 5 CENTAUR R/B 3.5 21:47:06 10° W 21:51:14 32° NNW 21:55:57 10° NE
Meteor 2-3 Rocket 3.9 21:48:25 10° NNW 21:54:08 67° W 21:55:21 53° SSW
Cosmos 2333 Rocket 4.3 21:52:21 10° NNW 21:56:34 21° NNE 22:00:27 11° ENE
Cosmos 2084 3.6 21:53:20 10° NW 21:57:21 72° NW 21:57:21 72° NW
Cosmos 1633 3.9 21:54:43 10° N 21:56:58 35° N 21:56:58 35° N
ATLAS CENTAUR R/B 3.0 21:56:05 10° WNW 21:58:21 24° W 21:58:21 24° W
Mayak -0.6 22:01:47 10° NNE 22:04:58 51° NNE 22:04:58 51° NNE
Cosmos 1727 Rocket 4.3 22:05:51 47° ESE 22:06:14 48° E 22:12:17 10° NNE
Cosmos 1842 Rocket 3.9 22:09:33 63° N 22:09:33 63° N 22:13:15 10° N
Terra 2.8 22:08:45 36° WSW 22:09:17 38° W 22:13:44 10° NNW
Cosmos 1934 Rocket 4.3 22:03:45 10° NNW 22:09:54 60° W 22:11:27 46° SW
SPOT 5 4.2 22:10:53 25° WSW 22:11:21 25° W 22:14:58 10° NW
Cosmos 2278 4.4 22:08:32 10° NW 22:13:47 40° WSW 22:14:24 38° SW
Sich 1 3.8 22:11:34 10° N 22:15:12 47° NE 22:15:12 47° NE
Cosmos 2082 Rocket 2.0 22:15:56 76° SSW 22:16:25 88° ESE 22:22:08 10° NNE
Cosmos 2100 Rocket 4.2 22:13:47 10° N 22:19:55 55° ENE 22:20:40 52° E
Cosmos 1486 Rocket 4.0 22:22:40 68° ENE 22:22:40 68° ENE 22:27:26 10° NNE
Cosmos 1833 Rocket 3.1 22:20:38 34° WSW 22:23:00 61° NW 22:28:38 10° NNE
Meteor 2-2 Rocket 4.1 22:24:29 76° ESE 22:24:32 76° E 22:30:12 10° NNE
Cosmos 968 Rocket 3.9 22:25:39 51° ENE 22:25:39 51° ENE 22:29:54 10° NNE
Cosmos 2173 Rocket 4.1 22:19:40 10° N 22:25:41 56° ENE 22:26:16 53° E
Cosmos 1605 Rocket 4.1 22:22:17 10° NNW 22:28:21 65° W 22:29:21 56° SW
Cosmos 2219 Rocket 3.9 22:27:20 10° NNW 22:32:01 26° NE 22:34:42 19° ENE
Cosmos 2344 4.4 22:25:04 10° NW 22:34:18 64° SW 22:38:35 43° S
ALOS 2 3.3 22:36:50 51° NNE 22:36:50 51° NNE 22:40:20 10° N
NOSS 2-1 (C) 4.1 22:32:03 10° NW 22:36:54 86° NE 22:37:02 84° E
NOSS 2-1 (D) 4.1 22:36:18 10° NW 22:41:10 90° NE 22:41:11 89° ESE
Cosmos 1805 Rocket 4.2 22:36:58 10° NNW 22:40:32 54° NW 22:40:32 54° NW
Cosmos 1346 Rocket 4.1 22:40:01 10° NNW 22:42:41 41° N 22:42:41 41° N
Cosmos 1340 4.3 22:40:59 10° NNW 22:43:13 33° NNW 22:43:13 33° NNW
CZ-4C R/B 3.6 22:39:36 10° NW 22:46:09 39° WSW 22:47:00 38° SW
Cosmos 2237 4.3 22:45:36 10° NNW 22:51:19 64° NE 22:51:39 63° ENE
Cosmos 1633 Rocket 3.9 22:52:53 10° N 22:56:12 49° N 22:56:12 49° N
Helios 1A 4.0 22:59:02 45° N 22:59:02 45° N 23:02:01 10° NNW
Cosmos 2322 4.4 22:52:41 10° NNW 22:58:13 46° NE 22:59:14 42° ENE
COSMOS 2428 4.0 22:56:27 10° NNW 23:01:40 35° NE 23:03:37 27° E
Cosmos 1400 Rocket 4.4 23:12:00 32° NNW 23:12:00 32° NNW 23:14:37 10° N
Cosmos 1607 4.0 23:12:04 59° WSW 23:13:12 74° NW 23:19:30 10° NE
Thor Agena Rocket 4.4 23:11:38 10° N 23:16:24 42° WNW 23:16:56 40° W
Meteor 1-20 Rocket 4.4 23:11:11 10° N 23:16:57 63° ENE 23:16:59 63° ENE
Cosmos 1354 Rocket 4.2 23:17:37 71° N 23:17:37 71° N 23:22:24 10° NNE
SL-16 R/B 2.8 23:13:20 10° NW 23:18:02 45° W 23:18:02 45° W
Cosmos 2360 Rocket 2.2 23:13:59 10° NNW 23:19:17 79° NNW 23:19:17 79° NNW
Cosmos 2221 4.4 23:23:26 24° WNW 23:23:26 24° WNW 23:27:01 10° N
Helios 1B rocket 4.4 23:20:12 10° NNE 23:22:09 23° NE 23:22:09 23° NE
Cosmos 2322 Rocket 2.8 23:20:16 10° NW 23:24:52 46° W 23:24:52 46° W
USA 234 3.4 23:19:19 10° ENE 23:25:51 73° NNW 23:32:23 10° W
Cosmos 1980 Rocket 4.2 23:22:45 10° WNW 23:25:34 15° W 23:25:34 15° W
Cosmos 2061 Rocket 3.9 23:24:19 10° NNW 23:30:36 79° W 23:30:49 77° WSW
Cosmos 1503 Rocket 4.4 23:31:42 58° NW 23:31:42 58° NW 23:36:44 10° NNE
Cosmos 923 Rocket 4.3 23:27:53 10° NNW 23:32:50 60° NE 23:32:50 60° NE
Cosmos 1459 Rocket 4.3 23:29:44 10° NNW 23:35:55 55° W 23:36:11 54° WSW
ATLAS 5 CENTAUR R/B 4.0 23:33:00 10° NW 23:37:13 27° N 23:42:02 10° ENE
MOS 1-B Rocket 4.1 23:33:27 10° NNE 23:39:42 81° ESE 23:40:21 73° SSE
Mayak 1.2 23:38:30 10° NNW 23:41:00 16° WNW 23:41:32 15° WNW
Cosmos 2333 Rocket 2.4 23:36:22 10° NNW 23:42:00 61° NE 23:42:25 60° ENE
Cosmos 2237 Rocket 3.8 23:37:49 10° NNW 23:42:50 31° NE 23:46:25 17° E
Cosmos 2233 Rocket 3.9 23:41:10 10° N 23:47:29 78° ENE 23:47:50 75° ESE
SME Rocket 4.2 23:43:18 10° NNE 23:46:10 40° NNE 23:46:10 40° NNE
Cosmos 1864 Rocket 4.4 23:41:35 10° NNW 23:47:56 73° W 23:48:08 72° WSW
Cosmos 1680 Rocket 3.8 23:44:09 10° NNW 23:49:10 63° NE 23:49:10 63° NE
SL-16 R/B 3.8 23:48:42 23° ESE 23:51:33 35° ENE 23:57:04 10° N
Cosmos 44 Rocket 4.3 23:53:59 38° ENE 23:53:59 38° ENE 23:56:59 10° NE
